ARIRANG-3 (KOMPSAT-3)

Last updated on Sat Jul 05 2025 00:02:29 GMT+0000 (Coordinated Universal Time)

1 38338U 12025B 25185.65529876 .00000364 00000+0 83109-4 0 9991 2 38338 98.3071 139.3200 0007170 104.6833 255.5163 14.61443975700663
UTC large
Height (km)
Speed (km/s)
/
Latitude / Longitude
Inclination (degrees)
Orbital Period (minutes)
Azimuth
Elevation
Range (km)
Doppler Factor

Next 0 passes for location: London (51.5072 / 0.1276)

Sorry there are no passes over London.